COSMOS 2407 [+]

Last updated on July 6, 2021, 3:40 p.m. UTC

1 28380U 04028A   21186.60759045  .00000043  00000-0  28360-4 0  9999
2 28380  82.9613 333.1843 0037836 267.6869  91.9956 13.76092423851457
UTC
Height (km)
Latitude
Longitude
Inclination
Orbital Period
UTC large
Height (km)
Speed (km/s)
/
Latitude / Longitude
Inclination (degrees)
Orbital Period (minutes)
Azimuth
Elevation
Range (km)
Doppler Factor
iOS Compass Heading
iOS Angle